Location: ??????
(42.0089°N, 44.3281°E)
Time: 20:01:36
(UTC+00:00)

CZ-2C R/B - Pass Details

Date: 29 May 2022
Orbit: 785 x 869 km, 98.2° (Epoch: 25 June)

Event Time Altitude Azimuth Distance (km) Brightness Sun altitude
Rises 00:46:55 0° 140° (SE) 3,272 5.8 -7.6°
Reaches altitude 10° 00:49:23 10° 132° (SE) 2,354 5.2 -7.3°
Maximum altitude 00:54:03 35° 68° (ENE) 1,278 4.5 -6.6°
Drops below altitude 10° 00:58:48 10° 4° (N) 2,406 5.7 -5.9°
Sets 01:01:21 0° 356° (N) 3,356 6.3 -5.5°
